Home   Weather   Liestal   Past weeks

Flag for Switzerland Past Weather in Liestal, Basel-Land, Switzerland — Yesterday and Last 2 Weeks

Now
59 °F

Clear.


Feels Like: 59 °F
Forecast: 52 / 66 °F
Wind: 1 mph from North

Location: Bale-Mulhouse

Current Time: Sep 30, 2016 at 10:31:02 PM

Latest Report: Sep 30, 2016 at 10:00 PM


Visibility: 10 mi

Pressure: 29.98 "Hg

Humidity: 82%

Dew Point: 54 °F

Location of LiestalLocation

Past Weather in Liestal — Graph

°F

Liestal Temperature Yesterday

Maximum temperature yesterday: 79 °F (at 2:30 PM)
Minimum temperature yesterday: 52 °F (at 12:30 AM)
Average temperature yesterday: 63 °F

High & Low Weather Summary for the Past Weeks

 TemperatureHumidityPressure
High79 °F (Sep 29, 2:30 PM)100% (Sep 17, 7:30 AM)30.45 "Hg (Sep 17, 7:30 AM)
Low41 °F (Sep 24, 7:30 AM)39% (Sep 25, 4:00 PM)29.92 "Hg (Sep 18, 8:00 AM)
Average59 °F81%30.14 "Hg
* Reported Sep 15 9:00 PM — Sep 30 9:30 PM, Liestal, Weather by CustomWeather, © 2016

Note: Actual official high and low records may vary slightly from our data, if they occured in-between our weather recording intervals... More about our weather records

Advertising

Liestal Weather History for the Previous 24 Hours

Scroll right to see more
 ConditionsComfort  
Time TempWeatherWind HumidityBarometerVisibility
9:30 PM
Fri, Sep 30
59 °FClear.3 mph88%29.98 "Hg10 mi
9:00 PM61 °FClear.3 mph83%29.98 "Hg10 mi
8:30 PM61 °FPassing clouds.3 mph77%30.01 "HgN/A
8:00 PM61 °FClear.1 mph77%29.98 "Hg10 mi
7:30 PM63 °FClear.2 mph73%29.98 "Hg10 mi
7:00 PM66 °FSunny.1 mph64%29.98 "Hg10 mi
6:30 PM66 °FScattered clouds.3 mph64%29.98 "HgN/A
6:00 PM68 °FScattered clouds.6 mph60%29.98 "HgN/A
5:30 PM72 °FScattered clouds.7 mph53%30.01 "HgN/A
5:00 PM73 °FPartly sunny.7 mph50%30.01 "HgN/A
4:30 PM72 °FPartly sunny.8 mph53%30.01 "HgN/A
4:00 PM73 °FPartly sunny.9 mph50%30.01 "HgN/A
3:30 PM73 °FPartly sunny.12 mph50%30.01 "HgN/A
3:00 PM73 °FPartly sunny.12 mph47%30.01 "HgN/A
2:30 PM73 °FPartly sunny.14 mph47%30.04 "HgN/A
2:00 PM73 °FPartly sunny.10 mph44%30.04 "HgN/A
1:30 PM72 °FPartly sunny.8 mph44%30.04 "HgN/A
1:00 PM72 °FPartly sunny.6 mph41%30.04 "HgN/A
12:30 PM70 °FPartly sunny.5 mph43%30.04 "HgN/A
12:00 PM70 °FPassing clouds.5 mph50%30.07 "HgN/A
11:30 AM70 °FSunny.2 mph53%30.07 "Hg10 mi
11:00 AM66 °FSunny.No wind60%30.07 "Hg10 mi
10:30 AM64 °FPassing clouds.3 mph68%30.07 "HgN/A
10:00 AM61 °FPassing clouds.3 mph72%30.07 "HgN/A
9:30 AM59 °FPassing clouds.5 mph82%30.04 "HgN/A
9:00 AM57 °FPassing clouds.3 mph88%30.04 "HgN/A
8:30 AM52 °FSunny.2 mph100%30.04 "Hg10 mi
8:00 AM50 °FSunny.5 mph94%30.07 "Hg10 mi
7:30 AM48 °FPassing clouds.3 mph94%30.04 "HgN/A
7:00 AM48 °FClear.3 mph94%30.04 "Hg10 mi
6:30 AM50 °FClear.5 mph94%30.04 "Hg10 mi
6:00 AM50 °FClear.5 mph100%30.04 "Hg10 mi
5:30 AM48 °FClear.3 mph94%30.04 "Hg10 mi
5:00 AM50 °FClear.3 mph94%30.04 "Hg10 mi
4:30 AM50 °FClear.3 mph94%30.07 "Hg10 mi
4:00 AM52 °FPassing clouds.5 mph94%30.07 "HgN/A
3:30 AM50 °FClear.No wind94%30.07 "Hg10 mi
3:00 AM50 °FClear.2 mph94%30.07 "Hg10 mi
2:30 AM52 °FPassing clouds.3 mph94%30.09 "HgN/A
2:00 AM52 °FClear.3 mph94%30.09 "Hg10 mi
1:30 AM52 °FClear.5 mph94%30.09 "Hg10 mi
1:00 AM52 °FClear.2 mph94%30.09 "Hg10 mi
12:30 AM54 °FClear.2 mph94%30.09 "Hg10 mi
12:00 AM55 °FPassing clouds.3 mph88%30.09 "HgN/A
11:00 PM
Thu, Sep 29
55 °FClear.3 mph88%30.09 "Hg10 mi
10:30 PM55 °FPassing clouds.3 mph88%30.09 "HgN/A
10:00 PM57 °FClear.3 mph82%30.09 "Hg10 mi
Weather by CustomWeather, © 2016

See weather overviewHow to use our weather pages